Wind_Speed
12 12 12 12 12 13 13 12 12 12 12 11 11 11 10 10 10 10 10 11 11 11 11 11 11 12 12 12 12 12 11 11 12 12 11 11 11 12 12 12 13 14 14
12 12 12 11 12 12 13 13 13 12 12 12 11 11 10 10 11 11 10 10 11 11 11 11 11 12 12 12 12 12 12 12 11 11 11 12 12 12 12 12 12 13 13
13 12 12 12 12 12 12 12 13 13 13 12 12 11 11 11 11 11 11 11 12 12 12 12 12 12 12 12 12 12 12 12 11 11 11 11 11 12 12 12 12 13 14
13 12 12 12 13 12 12 12 12 12 13 13 13 12 12 12 12 12 12 12 12 12 12 12 12 12 12 12 11 12 12 12 12 11 11 11 11 11 11 11 12 13 13
14 14 14 13 14 13 13 13 12 12 13 14 14 14 13 13 13 14 14 13 13 12 12 12 12 12 13 13 12 11 11 12 12 12 12 11 10 11 11 12 12 13 13
15 15 14 14 15 14 14 14 14 14 14 14 15 15 15 15 14 14 15 15 14 13 13 12 12 12 12 12 11 11 11 11 12 12 12 12 12 12 12 12 12 12 13
16 16 16 16 16 16 16 15 15 15 15 15 15 16 15 15 15 14 14 14 14 14 14 13 12 12 11 11 11 11 11 11 12 12 12 13 12 13 13 12 12 13 13
17 17 17 17 17 17 17 17 17 17 16 16 16 16 16 15 15 14 14 14 14 14 13 13 12 12 12 12 12 11 11 12 12 13 12 12 13 13 13 13 14 14 14
17 17 18 18 18 18 18 17 18 17 18 18 17 16 16 17 16 16 15 15 14 14 14 14 13 13 13 13 13 12 12 12 13 14 14 14 13 14 14 14 14 14 14
18 18 18 18 19 20 20 20 20 19 19 18 18 17 17 17 16 16 16 16 15 15 15 15 14 13 13 14 14 14 14 14 14 14 14 15 15 15 15 15 15 15 15
19 19 19 19 19 20 20 19 20 20 20 19 19 19 18 18 18 18 17 16 16 15 15 15 15 15 15 15 15 15 15 15 15 16 16 16 16 16 16 16 16 16 15
20 20 20 20 20 20 20 20 20 20 20 20 20 20 20 19 19 18 17 16 16 16 16 16 15 15 15 15 15 15 15 15 16 16 16 17 17 17 16 16 16 16 15
19 19 20 20 20 20 20 20 20 20 20 20 20 20 20 19 19 18 18 17 17 17 17 16 16 15 15 15 15 16 16 16 16 17 17 17 17 17 17 17 17 17 16
20 20 20 20 20 20 20 20 20 20 20 19 19 19 19 19 19 19 18 18 18 18 18 18 17 17 17 17 17 17 17 17 17 17 18 18 18 18 18 18 17 18 17
21 21 20 20 20 20 20 20 20 20 19 20 20 19 19 19 20 20 20 20 19 19 19 20 19 19 19 19 19 19 19 19 19 19 19 19 19 19 19 19 19 19 19
21 21 20 20 20 20 20 19 19 19 19 19 20 20 20 20 19 20 20 21 20 20 20 21 21 20 20 21 21 21 20 20 20 20 20 20 20 19 20 20 20 20 19
21 20 20 20 19 19 19 19 19 19 19 19 20 20 20 20 20 20 20 21 21 21 21 21 21 22 22 21 22 22 21 21 21 21 21 21 21 21 21 21 21 21 21
21 21 20 20 19 19 19 19 19 19 19 19 19 20 20 20 21 21 21 21 21 22 22 21 22 22 22 21 21 22 22 22 22 22 22 22 22 22 22 22 22 22 22
20 20 20 19 19 19 19 18 18 18 19 19 20 20 21 21 21 22 22 22 22 22 22 22 22 22 22 22 22 22 22 22 22 22 22 23 23 23 23 22 22 22 23
19 19 19 19 19 19 19 18 18 19 20 20 20 21 21 21 22 22 23 23 23 23 23 22 22 22 23 23 22 23 23 23 23 23 23 22 21 22 22 22 23 23 24
19 19 19 19 19 19 20 19 19 20 20 20 20 21 22 22 22 23 23 24 24 24 24 23 22 22 23 23 25 25 25 25 24 24 23 23 22 22 23 24 24 24 24
20 20 20 20 20 20 21 21 21 21 21 21 21 22 22 22 23 23 24 24 25 25 25 25 24 24 24 25 25 26 25 25 25 25 24 24 24 24 24 25 24 24 24
21 20 21 21 21 21 22 22 22 23 23 23 23 23 23 23 24 25 25 25 25 26 26 26 27 26 26 26 26 27 26 25 25 26 26 25 25 25 25 25 25 25 24
22 22 22 23 23 22 23 23 23 24 24 24 24 24 25 25 26 26 26 27 27 27 28 28 28 28 28 28 28 28 28 27 27 26 26 26 26 25 26 26 26 25 25
24 24 25 24 25 24 24 24 24 24 25 26 26 26 26 26 27 27 27 27 27 28 29 29 29 29 29 30 30 29 29 28 27 27 27 26 26 26 26 26 26 26 25
25 25 25 25 25 25 25 26 26 25 25 26 27 28 28 29 29 29 29 29 29 29 29 30 30 31 31 31 31 31 31 31 30 29 29 29 28 28 27 27 27 26 26
Wind_Direction
281 281 283 282 279 276 274 272 270 271 272 271 270 269 270 273 270 267 266 262 262 265 266 268 267 268 268 269 269 272 270 269 265 263 261 261 262 263 260 255 253 253 255
277 280 282 283 283 281 277 274 272 271 269 266 265 265 266 270 271 271 270 264 263 266 267 266 268 271 272 272 274 272 270 270 266 263 264 265 264 263 261 257 255 253 255
276 278 280 280 281 281 279 277 274 272 269 267 266 265 266 268 269 270 271 269 267 267 268 268 270 271 271 272 274 271 272 269 266 266 268 268 265 264 261 258 257 257 258
276 277 279 279 277 278 278 277 276 275 273 271 269 268 267 268 267 268 271 273 270 266 267 268 267 269 271 271 273 273 269 266 268 267 268 267 265 263 262 260 258 258 258
274 275 276 275 275 276 276 275 275 275 272 270 270 270 268 269 268 267 269 270 270 270 269 269 264 266 269 268 267 268 267 266 266 267 267 265 265 265 264 264 262 260 260
273 272 273 274 273 273 274 273 272 273 271 270 270 270 269 271 272 271 270 268 267 269 268 269 267 265 265 264 264 263 265 265 267 267 267 265 265 268 268 267 266 266 265
273 273 273 272 272 272 273 273 272 271 271 272 270 269 269 270 271 272 270 267 266 266 266 267 269 265 263 260 259 261 263 266 268 267 268 266 266 268 268 268 269 269 269
274 275 275 273 273 274 273 271 270 271 271 270 269 267 268 268 268 270 269 267 265 264 264 265 267 269 266 264 262 263 262 263 267 269 269 267 265 267 268 268 271 271 271
278 275 274 274 274 273 272 272 271 271 271 270 269 267 268 268 267 269 268 266 264 264 263 264 268 269 269 268 266 267 267 265 266 267 267 266 267 268 270 272 274 274 273
282 278 277 275 274 273 272 271 270 270 270 269 268 266 267 267 268 269 265 265 264 265 265 264 266 267 269 270 267 266 268 269 268 268 268 270 272 272 273 274 274 275 274
284 283 279 277 275 272 271 271 269 268 268 266 265 263 264 265 266 266 266 264 264 265 266 267 266 266 267 268 268 268 269 268 267 270 270 271 273 273 274 274 276 276 276
281 281 281 278 275 272 271 270 268 266 266 266 265 263 264 265 266 265 265 265 265 266 267 268 267 265 267 269 270 269 270 271 270 271 272 272 272 272 274 275 276 277 274
281 279 278 278 275 272 271 270 268 267 267 267 266 264 264 265 264 263 261 263 265 266 268 269 268 266 267 269 271 270 271 273 274 274 274 274 273 273 273 275 276 276 275
281 279 278 277 275 274 272 270 269 267 265 266 266 265 265 264 262 261 262 263 266 267 267 267 268 268 268 270 272 272 272 273 275 275 275 273 273 272 271 272 274 275 275
282 281 278 276 275 276 275 272 269 267 265 263 263 263 264 263 261 261 261 263 266 267 268 268 268 268 269 270 272 273 274 274 274 275 275 273 271 271 271 271 272 274 275
283 282 279 277 277 277 276 274 270 265 264 262 261 261 261 262 262 260 261 262 264 266 268 268 267 268 270 270 270 271 273 274 275 276 275 273 272 271 272 270 270 272 272
281 279 278 276 276 275 275 274 270 266 264 262 262 261 261 263 261 260 261 261 262 264 266 268 269 269 270 270 270 271 272 274 275 276 275 273 272 270 270 270 271 270 269
277 276 276 274 273 273 273 272 270 266 265 265 266 265 264 265 263 262 262 262 262 264 266 266 268 268 269 270 271 273 274 275 277 276 275 274 272 269 269 270 271 269 269
279 277 275 272 270 271 272 271 271 269 268 268 266 265 264 265 264 263 263 263 264 266 268 268 268 268 269 271 273 274 274 275 278 278 277 275 272 269 268 268 269 270 270
279 279 276 272 270 271 270 270 271 271 271 270 268 265 264 267 268 266 264 264 265 265 266 269 269 269 269 271 273 274 273 274 275 277 276 274 271 269 267 267 269 270 270
277 277 276 276 274 272 272 272 273 272 272 271 270 267 267 268 268 268 267 265 265 265 265 267 268 269 270 271 272 272 272 272 272 274 275 272 271 270 269 268 269 270 271
278 278 278 277 277 276 274 271 272 272 272 273 273 271 271 270 270 271 270 268 268 267 266 267 268 269 271 270 271 272 272 272 270 271 272 271 271 271 270 270 271 271 271
278 279 279 278 276 276 274 272 272 272 272 272 273 273 273 272 273 272 271 270 269 269 269 269 270 270 271 271 272 272 271 271 271 270 270 270 270 270 270 271 272 272 270
278 279 279 277 275 274 274 273 273 271 270 271 271 272 272 272 272 272 272 271 269 268 268 268 270 271 271 272 272 272 272 270 269 270 270 270 271 270 270 270 270 270 269
276 277 277 276 276 275 274 274 275 274 271 272 272 272 273 273 272 272 272 271 270 268 269 269 272 272 273 273 273 273 272 271 269 269 269 270 270 270 269 269 269 270 269
276 276 276 277 276 276 275 274 273 272 272 272 272 273 273 273 272 272 272 271 270 268 268 270 271 271 271 271 273 272 270 270 269 269 269 269 270 270 268 267 267 268 269
Height
5843 5843 5843 5843 5843 5843 5843 5843 5843 5843 5843 5843 5844 5844 5844 5844 5845 5845 5845 5846 5846 5846 5846 5847 5847 5848 5848 5848 5848 5848 5848 5849 5849 5849 5849 5849 5850 5850 5850 5851 5852 5852 5853
5840 5840 5840 5840 5840 5840 5840 5840 5840 5840 5841 5841 5841 5842 5842 5842 5842 5843 5843 5843 5844 5844 5844 5844 5845 5845 5845 5846 5846 5846 5846 5846 5846 5847 5847 5847 5847 5848 5848 5848 5849 5849 5850
5838 5838 5838 5838 5838 5837 5837 5837 5837 5838 5838 5838 5839 5839 5840 5840 5840 5841 5841 5841 5842 5842 5842 5842 5842 5843 5843 5843 5843 5844 5844 5844 5844 5844 5844 5845 5845 5845 5845 5846 5846 5846 5847
5835 5835 5835 5835 5835 5835 5835 5835 5835 5835 5835 5836 5836 5837 5837 5837 5838 5838 5838 5839 5839 5839 5839 5839 5839 5840 5840 5840 5841 5841 5841 5841 5841 5842 5842 5842 5842 5842 5843 5843 5843 5844 5844
5832 5832 5832 5832 5832 5832 5832 5832 5832 5832 5832 5833 5833 5834 5834 5835 5835 5835 5836 5836 5836 5836 5837 5837 5837 5837 5837 5838 5838 5838 5838 5839 5839 5839 5839 5839 5839 5840 5840 5840 5840 5841 5841
5828 5828 5828 5828 5829 5829 5829 5829 5829 5829 5830 5830 5830 5831 5831 5831 5832 5832 5833 5833 5833 5833 5834 5834 5834 5834 5835 5835 5835 5836 5836 5836 5836 5836 5837 5837 5837 5837 5837 5837 5838 5838 5838
5824 5824 5825 5825 5825 5825 5825 5826 5826 5826 5826 5827 5827 5828 5828 5828 5829 5829 5829 5830 5830 5830 5830 5831 5831 5831 5832 5832 5832 5833 5833 5833 5834 5834 5834 5834 5834 5834 5834 5834 5834 5835 5835
5820 5820 5820 5820 5821 5821 5821 5822 5822 5822 5822 5823 5823 5824 5824 5826 5825 5826 5826 5826 5827 5827 5827 5828 5828 5829 5829 5829 5830 5830 5830 5831 5831 5831 5831 5831 5831 5831 5831 5831 5831 5831 5831
5816 5816 5816 5816 5816 5816 5817 5817 5818 5818 5818 5819 5819 5820 5821 5821 5822 5822 5822 5823 5823 5823 5824 5825 5825 5826 5826 5826 5827 5827 5828 5828 5828 5828 5828 5828 5828 5828 5828 5828 5827 5827 5828
5811 5811 5811 5810 5811 5811 5812 5812 5813 5813 5814 5814 5815 5816 5817 5817 5818 5818 5819 5819 5819 5820 5821 5821 5822 5823 5823 5823 5824 5824 5824 5824 5824 5824 5824 5824 5824 5824 5824 5824 5824 5824 5824
5806 5806 5805 5805 5805 5805 5806 5806 5807 5808 5809 5809 5810 5811 5812 5813 5813 5814 5815 5815 5816 5816 5817 5818 5818 5819 5820 5820 5820 5820 5821 5821 5821 5820 5820 5820 5820 5820 5820 5820 5820 5820 5819
5801 5800 5800 5799 5799 5800 5800 5801 5801 5802 5803 5804 5805 5806 5807 5808 5809 5809 5810 5811 5812 5812 5813 5814 5814 5815 5815 5816 5816 5816 5816 5817 5816 5816 5816 5816 5816 5816 5816 5816 5816 5815 5815
5795 5794 5794 5794 5794 5794 5794 5795 5796 5797 5798 5799 5800 5801 5802 5803 5804 5805 5806 5806 5807 5808 5809 5809 5810 5810 5811 5812 5812 5812 5812 5812 5812 5812 5811 5811 5811 5811 5811 5811 5811 5811 5811
5790 5789 5788 5788 5788 5788 5789 5789 5790 5791 5793 5794 5795 5796 5797 5798 5799 5800 5801 5802 5803 5803 5804 5805 5805 5806 5806 5807 5807 5807 5808 5808 5807 5807 5807 5807 5807 5807 5806 5807 5807 5807 5806
5784 5783 5783 5783 5783 5783 5783 5784 5785 5786 5787 5789 5790 5791 5792 5793 5794 5795 5796 5797 5798 5799 5799 5800 5800 5801 5801 5802 5802 5802 5802 5802 5802 5802 5802 5801 5801 5801 5801 5801 5802 5802 5802
5778 5778 5777 5777 5777 5777 5778 5778 5779 5781 5782 5783 5784 5786 5786 5787 5788 5789 5790 5791 5792 5793 5794 5794 5795 5795 5796 5796 5796 5796 5797 5797 5797 5796 5796 5796 5796 5796 5796 5796 5796 5796 5796
5773 5773 5772 5772 5772 5772 5773 5773 5774 5775 5777 5778 5779 5780 5781 5782 5783 5784 5785 5785 5786 5787 5788 5789 5789 5789 5790 5790 5790 5790 5790 5790 5790 5790 5790 5789 5789 5790 5790 5790 5790 5791 5791
5767 5767 5767 5767 5767 5767 5768 5768 5769 5770 5771 5772 5774 5775 5776 5776 5777 5778 5779 5779 5780 5781 5782 5783 5783 5783 5784 5784 5784 5784 5784 5784 5784 5783 5783 5782 5782 5783 5783 5784 5784 5784 5785
5762 5762 5762 5762 5762 5762 5763 5763 5764 5765 5766 5767 5768 5769 5770 5771 5771 5772 5772 5773 5774 5775 5775 5776 5777 5777 5777 5778 5778 5778 5778 5778 5778 5777 5776 5775 5775 5776 5777 5777 5778 5778 5779
5756 5756 5756 5757 5757 5757 5757 5758 5759 5760 5761 5761 5762 5763 5764 5764 5765 5765 5766 5767 5767 5768 5769 5770 5770 5771 5771 5771 5771 5772 5772 5772 5772 5771 5770 5770 5769 5770 5770 5771 5772 5772 5772
5751 5751 5751 5752 5752 5752 5752 5752 5753 5754 5755 5755 5756 5756 5757 5758 5758 5758 5759 5760 5761 5761 5762 5763 5763 5764 5764 5765 5765 5765 5765 5765 5765 5765 5764 5764 5764 5764 5764 5765 5765 5765 5765
5746 5746 5746 5746 5746 5746 5746 5747 5747 5748 5748 5749 5749 5750 5750 5751 5751 5751 5752 5752 5753 5754 5754 5755 5756 5757 5757 5757 5757 5757 5757 5758 5758 5758 5758 5758 5758 5758 5758 5758 5758 5759 5759
5741 5740 5740 5740 5740 5740 5740 5740 5741 5741 5742 5742 5743 5743 5743 5744 5744 5744 5744 5745 5745 5746 5747 5747 5748 5749 5749 5749 5749 5749 5749 5750 5750 5750 5750 5751 5751 5751 5751 5751 5751 5751 5752
5735 5735 5734 5734 5734 5734 5734 5734 5734 5734 5735 5735 5735 5736 5736 5736 5736 5737 5737 5737 5737 5738 5738 5739 5739 5740 5740 5740 5741 5741 5741 5741 5742 5741 5742 5743 5743 5743 5743 5743 5744 5744 5744
5728 5728 5727 5727 5727 5726 5726 5726 5726 5727 5727 5727 5728 5728 5728 5728 5728 5728 5728 5729 5729 5729 5729 5730 5730 5731 5731 5731 5732 5732 5732 5732 5733 5734 5734 5734 5735 5735 5735 5735 5735 5736 5736
5721 5721 5720 5719 5719 5719 5719 5718 5718 5719 5719 5720 5720 5720 5719 5719 5719 5719 5719 5719 5720 5720 5720 5721 5721 5721 5722 5722 5722 5723 5723 5723 5724 5725 5725 5725 5725 5726 5727 5727 5727 5727 5728